Weather History for Klawock, AK

Change the Weather History Date:

Wednesday, April 10, 2013

  Actual Average Record
Temperature  
Mean Temperature 38 °F -  
Max Temperature 42 °F 47 °F 63 °F (1997)
Min Temperature 32 °F 31 °F 27 °F (2001)
Degree Days  
Heating Degree Days 28    
Moisture  
Dew Point 32 °F    
Average Humidity 86    
Maximum Humidity 93    
Minimum Humidity 70    
Precipitation  
Precipitation 0.10 in - - ()
Sea Level Pressure  
Sea Level Pressure 30.04 in    
Wind  
Wind Speed 2 mph (SSW)    
Max Wind Speed 10 mph    
Max Gust Speed -    
Visibility 7 miles    
Events Rain , Snow    
Averages and records for this station are not official NWS values.
T = Trace of Precipitation, MM = Missing Value Source: NWS Daily Summary

Daily Weather History Graph

Daily Weather History Graph

Search for Another Location

Airport:

Trip Planner

Search our weather history database for the weather conditions in past years. The results will help you decide how hot, cold, wet, or windy it might be!

Date:

Astronomy

Apr. 10, 2013 Rise Set
Actual Time 5:59 AM AKDT 7:49 PM AKDT
Civil Twilight 5:20 AM AKDT 8:28 PM AKDT
Nautical Twilight 4:31 AM AKDT 9:17 PM AKDT
Astronomical Twilight 3:35 AM AKDT 10:14 PM AKDT
Moon 5:53 AM AKDT (4/10) 8:44 PM AKDT (4/10)
Length of Visible Light 15h 07m
Length of Day
13h 49m
New Moon, 0% of the Moon is Illuminated
Apr 10
New Moon
Apr 18
First Quarter
Apr 25
Full
May 2
Last Quarter
May 9
New

Hourly Weather History & Observations

Time (AKDT) Temp. Windchill Dew Point Humidity Pressure Visibility Wind Dir Wind Speed Gust Speed Precip Events Conditions
12:53 AM 37.9 °F - 33.1 °F 83% 29.87 in 10.0 mi Calm Calm - N/A   Overcast
1:53 AM 37.0 °F - 32.0 °F 82% 29.88 in 10.0 mi Calm Calm - N/A   Overcast
2:53 AM 36.0 °F - 33.1 °F 89% 29.88 in 10.0 mi Calm Calm - N/A   Overcast
3:53 AM 37.0 °F - 30.9 °F 79% 29.89 in 10.0 mi Calm Calm - N/A   Overcast
4:53 AM 36.0 °F - 32.0 °F 86% 29.91 in 10.0 mi Calm Calm - N/A   Overcast
5:53 AM 35.1 °F - 32.0 °F 89% 29.92 in 10.0 mi Calm Calm - N/A   Overcast
6:53 AM 36.0 °F 31.1 °F 32.0 °F 86% 29.94 in 10.0 mi Variable 5.8 mph - N/A   Overcast
7:13 AM 35.6 °F 28.0 °F 32.0 °F 87% 29.95 in 2.0 mi WSW 10.4 mph - 0.00 in Snow Light Snow
7:17 AM 33.8 °F 27.7 °F 30.2 °F 87% 29.95 in 0.8 mi SSW 6.9 mph - 0.00 in Snow Light Snow
7:22 AM 33.8 °F 30.8 °F 30.2 °F 87% 29.95 in 1.0 mi South 3.5 mph - 0.00 in Snow Light Snow
7:25 AM 33.8 °F 30.8 °F 30.2 °F 87% 29.96 in 2.5 mi Variable 3.5 mph - 0.00 in Snow Light Snow
7:32 AM 33.8 °F - 32.0 °F 93% 29.95 in 8.0 mi Calm Calm - 0.00 in Snow Light Snow
7:53 AM 35.1 °F 32.2 °F 30.9 °F 85% 29.96 in 10.0 mi SSE 3.5 mph - 0.00 in   Overcast
8:46 AM 35.6 °F - 32.0 °F 87% 29.98 in 10.0 mi Calm Calm - N/A   Overcast
8:53 AM 37.0 °F - 33.1 °F 86% 29.99 in 10.0 mi Calm Calm - N/A   Overcast
9:53 AM 37.0 °F 34.5 °F 32.0 °F 82% 30.00 in 5.0 mi SSE 3.5 mph - 0.01 in Snow Light Snow
10:29 AM 35.6 °F 30.7 °F 33.8 °F 93% 30.00 in 4.0 mi SSE 5.8 mph - 0.00 in Snow Light Snow
10:34 AM 35.6 °F 31.7 °F 33.8 °F 93% 30.01 in 2.5 mi South 4.6 mph - 0.00 in Snow Light Snow
10:47 AM 33.8 °F 30.8 °F 32.0 °F 93% 30.01 in 2.5 mi South 3.5 mph - 0.00 in Snow Light Snow
10:53 AM 35.1 °F 31.0 °F 33.1 °F 92% 30.01 in 7.0 mi Variable 4.6 mph - 0.01 in Snow Light Snow
11:00 AM 35.6 °F 30.7 °F 33.8 °F 93% 30.01 in 9.0 mi Variable 5.8 mph - 0.01 in   Overcast
11:53 AM 39.9 °F 35.8 °F 33.1 °F 77% 30.03 in 10.0 mi South 5.8 mph - 0.02 in   Overcast
12:53 PM 42.1 °F 38.4 °F 33.1 °F 70% 30.04 in 10.0 mi SSW 5.8 mph - N/A   Mostly Cloudy
1:53 PM 39.0 °F 33.4 °F 30.0 °F 70% 30.06 in 10.0 mi SW 8.1 mph - 0.00 in   Overcast
2:53 PM 39.0 °F 34.8 °F 34.0 °F 82% 30.08 in 10.0 mi SSE 5.8 mph - 0.00 in   Mostly Cloudy
3:53 PM 37.9 °F 34.4 °F 33.1 °F 83% 30.09 in 10.0 mi Variable 4.6 mph - 0.00 in Rain Light Rain
4:53 PM 37.0 °F - 32.0 °F 82% 30.10 in 6.0 mi Calm Calm - 0.01 in Rain Light Rain
5:01 PM 37.4 °F - 33.8 °F 87% 30.09 in 10.0 mi Calm Calm - 0.00 in Rain Light Rain
5:36 PM 37.4 °F 34.9 °F 33.8 °F 87% 30.10 in 8.0 mi SSW 3.5 mph - 0.00 in Rain Light Rain
5:53 PM 37.0 °F 34.5 °F 32.0 °F 82% 30.11 in 9.0 mi SSW 3.5 mph - 0.02 in Rain Light Rain
6:53 PM 37.0 °F 32.4 °F 32.0 °F 82% 30.11 in 10.0 mi SSW 5.8 mph - N/A   Mostly Cloudy
7:53 PM 36.0 °F 32.1 °F 30.9 °F 82% 30.13 in 8.0 mi NW 4.6 mph - N/A   Overcast
8:00 PM 35.6 °F 31.7 °F 30.2 °F 81% 30.13 in 2.5 mi WNW 4.6 mph - 0.01 in Snow Light Snow
8:02 PM 35.6 °F 31.7 °F 30.2 °F 81% 30.13 in 2.0 mi WNW 4.6 mph - 0.01 in Snow Light Snow
8:19 PM 33.8 °F 28.6 °F 32.0 °F 93% 30.14 in 1.2 mi SW 5.8 mph - 0.01 in Snow Light Snow
8:29 PM 33.8 °F 30.8 °F 30.2 °F 87% 30.14 in 0.8 mi South 3.5 mph - 0.02 in Snow Light Snow
8:36 PM 33.8 °F 30.8 °F 30.2 °F 87% 30.15 in 1.8 mi SSE 3.5 mph - 0.02 in Snow Light Snow
8:39 PM 33.8 °F - 30.2 °F 87% 30.15 in 4.0 mi Calm Calm - 0.02 in Snow Light Snow
8:48 PM 33.8 °F - 32.0 °F 93% 30.15 in 9.0 mi Calm Calm - 0.02 in Snow Light Snow
8:53 PM 34.0 °F - 32.0 °F 92% 30.16 in 9.0 mi Calm Calm - 0.02 in   Overcast
9:42 PM 33.8 °F 29.6 °F 32.0 °F 93% 30.16 in 10.0 mi South 4.6 mph - 0.01 in   Overcast
9:53 PM 34.0 °F 31.0 °F 30.9 °F 89% 30.17 in 10.0 mi Variable 3.5 mph - 0.01 in   Overcast
10:21 PM 33.8 °F 30.8 °F 30.2 °F 87% 30.17 in 10.0 mi South 3.5 mph - N/A   Partly Cloudy
10:53 PM 33.1 °F - 30.9 °F 92% 30.19 in 5.0 mi Calm Calm - 0.00 in Snow Light Snow
11:53 PM 32.0 °F - 30.0 °F 92% 30.19 in 10.0 mi Calm Calm - 0.00 in   Partly Cloudy